Location: Arroyo Grande
(40.2671°N, 4.2512°W)
Time: 19:58:20
(UTC+00:00)

Cosmos 1461 - Pass Details

Date: 03 February 2023
Orbit: 492 x 644 km, 65.0° (Epoch: 21 March)

Event Time Altitude Azimuth Distance (km) Brightness Sun altitude
Rises 19:14:00 0° 234° (SW) 2,730 7.4 -18.7°
Reaches altitude 10° 19:16:19 10° 244° (WSW) 1,867 6.6 -19.1°
Maximum altitude 19:20:09 33° 310° (NW) 994 4.5 -19.8°
Enters shadow 19:23:42 13° 12° (NNE) 1,799 5.3 -20.5°
